Torna al catalogo

OPS 4682 DEB

AttivoPO
NORAD 38395·DEBRIS·🇺🇸 United States

Lanciato Apr 3, 1965 da Vandenberg Space Force Base

Loading…

Prossimi Passaggi (prossime 24 ore)

TLE

AggiornatoSource: Space-Track

Epoca: Sep 13, 2026, 18:35 UTC

1 38395U 65027CY  26256.77434928  .00000120  00000-0  38156-3 0  9992
2 38395  90.2634  20.4351 0030680 105.3077 255.1438 12.98527430106487

Traccia OPS 4682 DEB in tempo reale con AllMySat

Download on the App Store